Vorticity
9 6 10 8 11 6 4 5 5 4 6 5 5 4 2 3 5 4 4 2 2 3 5 8 8 8 7 6 6 6 5 5 6 5 5 7 7 5 8 9 7 6 5 6
12 9 10 8 5 5 6 2 2 -2 -0 1 1 2 3 6 4 -0 1 4 6 6 8 10 10 8 7 6 7 6 5 3 4 7 9 6 8 9 9 8 8 10 10 8
7 3 5 1 3 5 6 7 4 3 -1 1 5 -2 4 5 5 3 8 10 11 8 5 9 12 8 9 8 7 6 7 9 9 7 7 8 9 11 10 10 11 8 7 7
7 6 6 7 9 10 10 10 12 10 11 11 10 10 7 11 6 3 2 5 4 7 11 10 7 7 6 6 6 11 8 7 8 8 9 12 11 8 9 7 7 7 6 13
7 4 7 8 6 7 8 12 9 9 6 5 10 9 11 15 17 16 10 6 9 8 11 11 13 10 12 16 12 8 8 11 11 12 11 8 9 8 8 6 11 7 13 10
3 7 6 7 4 4 6 7 7 7 8 6 10 4 9 5 6 10 14 14 9 8 10 12 13 13 12 10 11 11 11 9 9 9 9 8 9 5 7 7 10 10 10 12
5 4 4 2 5 6 9 13 10 11 17 19 10 8 10 6 6 4 7 14 19 23 21 15 9 6 10 12 11 10 10 9 8 8 7 6 7 9 9 8 10 14 15 27
5 2 4 6 6 5 9 6 8 11 9 1 -3 6 22 16 12 15 10 9 15 18 17 15 12 14 10 11 12 12 10 8 7 8 9 8 9 9 8 14 16 23 17 10
9 4 7 10 8 12 8 15 6 13 11 11 10 9 8 16 8 7 12 12 11 4 -7 2 13 15 15 10 7 11 15 13 11 11 15 5 9 15 13 16 16 3 14 10
12 11 7 5 12 11 6 6 14 26 24 32 18 23 23 10 8 11 7 9 13 14 20 14 12 14 11 11 13 14 9 10 9 9 4 17 10 17 20 12 9 4 14 10
12 10 3 11 9 9 13 15 30 16 -1 -6 2 -2 -10 1 16 14 14 11 14 8 7 -11 2 8 24 2 2 6 7 8 1 16 12 13 15 16 10 4 13 7 8 14
14 12 12 6 9 12 14 11 10 -0 3 5 6 -2 15 13 7 8 7 20 6 -11 6 13 14 23 28 23 18 14 10 6 8 13 15 13 15 6 3 4 12 15 20 15
11 9 11 11 18 38 18 12 15 9 10 10 20 1 14 18 14 14 25 4 9 6 9 12 17 20 17 6 7 8 5 9 9 11 14 9 3 5 5 5 15 11 14 6
12 15 14 13 10 0 -2 11 8 6 9 9 3 10 4 21 18 21 7 1 7 7 13 11 17 12 11 6 8 7 11 8 12 7 15 9 -1 -2 1 7 20 11 13 8
9 5 8 14 15 20 19 15 21 28 -15 9 22 16 7 11 12 9 7 6 4 10 13 13 8 10 9 11 17 14 7 13 12 7 9 12 6 -0 7 15 14 12 6 17
10 10 9 5 16 12 11 15 19 24 17 22 5 4 -0 7 3 -5 -1 2 16 25 22 20 13 13 14 11 8 10 16 12 9 9 8 13 16 13 10 13 11 10 20 14
8 18 19 5 14 13 15 12 16 14 20 26 27 14 14 14 5 11 14 16 18 21 21 18 15 13 9 12 18 15 11 4 6 10 7 7 8 12 11 11 20 14 9 12
16 10 9 11 21 6 10 19 16 13 10 17 18 22 15 12 22 24 23 22 19 14 9 13 15 19 22 19 12 7 6 6 4 2 11 13 15 9 16 10 10 17 25 28
14 8 11 7 14 5 11 10 12 26 19 16 16 6 15 20 26 20 14 14 15 18 21 19 17 15 11 9 4 4 6 5 7 10 15 13 4 16 5 19 15 14 17 34
7 11 19 1 18 -2 -5 -7 9 26 23 18 15 18 11 15 12 11 9 11 15 13 3 5 12 9 6 4 6 10 11 18 18 18 8 5 12 6 17 14 13 14 22 11
7 10 14 14 7 7 6 13 11 16 17 23 12 12 3 13 10 11 12 15 12 12 18 10 9 8 10 13 16 25 21 24 25 14 6 12 4 17 13 8 12 15 11 6
10 16 6 6 5 -3 14 14 33 20 6 12 6 12 5 12 6 3 9 5 5 5 17 7 8 8 6 24 21 12 17 9 17 16 8 5 18 13 9 9 11 13 9 6
15 -10 -3 7 5 30 24 24 25 14 16 20 12 -5 16 3 7 6 12 5 11 11 11 0 4 10 8 25 11 10 23 7 7 6 9 18 11 14 9 7 9 12 12 6
11 20 22 14 10 9 9 12 -5 24 35 7 -1 4 9 11 10 10 10 10 10 9 8 7 5 7 10 15 26 4 12 11 7 6 19 18 10 12 9 9 7 8 10 10
4 8 13 13 7 4 11 18 -1 9 29 14 3 29 5 -8 7 8 7 13 10 7 5 7 9 5 3 7 36 9 -1 11 8 2 17 13 11 11 10 9 9 8 8 7
16 14 7 8 14 7 10 18 18 -3 14 10 7 5 6 13 9 8 8 9 6 8 10 15 11 11 2 6 8 28 14 5 2 5 11 13 10 12 10 11 10 10 9 8
Height
5778 5778 5779 5775 5775 5774 5773 5772 5771 5772 5771 5766 5767 5765 5766 5764 5764 5763 5762 5760 5759 5757 5756 5754 5753 5751 5750 5748 5746 5743 5741 5739 5737 5735 5732 5730 5727 5725 5723 5721 5718 5715 5711 5709
5769 5769 5769 5768 5766 5765 5763 5761 5761 5760 5759 5758 5756 5756 5756 5755 5754 5752 5751 5750 5748 5746 5746 5744 5742 5740 5738 5737 5735 5733 5730 5728 5726 5724 5722 5719 5716 5713 5711 5709 5706 5704 5702 5699
5760 5759 5759 5758 5757 5756 5754 5752 5751 5749 5748 5746 5746 5746 5746 5743 5743 5742 5741 5738 5736 5733 5732 5731 5730 5728 5727 5725 5723 5721 5719 5716 5714 5712 5708 5706 5703 5701 5699 5697 5696 5693 5691 5687
5749 5749 5747 5747 5747 5746 5744 5742 5741 5739 5736 5736 5732 5732 5733 5730 5730 5731 5728 5725 5724 5722 5720 5719 5718 5716 5714 5713 5711 5709 5707 5704 5702 5699 5697 5695 5692 5690 5688 5686 5684 5681 5678 5674
5740 5738 5737 5737 5735 5734 5733 5730 5728 5727 5724 5723 5723 5717 5723 5717 5717 5714 5714 5712 5710 5709 5708 5706 5705 5703 5702 5701 5699 5697 5695 5694 5690 5688 5686 5684 5682 5680 5677 5675 5672 5669 5665 5661
5729 5728 5727 5726 5724 5723 5720 5718 5716 5715 5712 5711 5713 5709 5714 5704 5701 5697 5697 5697 5696 5695 5694 5694 5693 5691 5690 5688 5687 5685 5684 5682 5680 5678 5676 5674 5671 5668 5666 5663 5660 5657 5653 5649
5720 5718 5716 5715 5712 5709 5708 5707 5704 5703 5699 5700 5697 5696 5698 5693 5690 5686 5684 5683 5682 5682 5681 5680 5679 5678 5677 5676 5674 5673 5671 5670 5668 5667 5665 5662 5660 5658 5655 5652 5649 5645 5642 5638
5707 5708 5704 5704 5702 5700 5697 5696 5693 5689 5690 5693 5683 5684 5682 5681 5682 5678 5674 5670 5669 5668 5668 5668 5668 5667 5666 5664 5663 5662 5661 5660 5658 5656 5654 5652 5651 5648 5645 5642 5638 5635 5632 5630
5693 5692 5687 5688 5688 5689 5683 5684 5681 5676 5676 5671 5675 5674 5671 5667 5669 5667 5664 5661 5660 5658 5656 5657 5657 5657 5655 5653 5653 5651 5651 5650 5648 5647 5645 5643 5642 5638 5634 5631 5629 5626 5624 5623
5677 5680 5675 5674 5674 5672 5670 5669 5668 5666 5661 5659 5663 5663 5662 5659 5656 5655 5653 5651 5649 5648 5647 5647 5646 5645 5644 5643 5643 5642 5641 5640 5639 5637 5635 5633 5630 5627 5625 5623 5621 5619 5617 5615
5662 5664 5666 5660 5658 5660 5658 5654 5652 5652 5650 5648 5650 5655 5653 5649 5645 5643 5641 5639 5638 5637 5637 5637 5637 5636 5634 5632 5632 5632 5631 5631 5629 5627 5625 5622 5621 5618 5617 5615 5613 5611 5609 5607
5647 5647 5650 5648 5647 5644 5644 5642 5642 5639 5640 5637 5635 5641 5636 5637 5633 5633 5630 5629 5627 5627 5626 5625 5624 5623 5622 5621 5621 5621 5621 5620 5619 5618 5615 5613 5612 5610 5609 5607 5605 5603 5600 5597
5633 5634 5634 5637 5636 5629 5630 5628 5627 5625 5625 5625 5624 5629 5628 5625 5624 5621 5617 5616 5615 5615 5613 5612 5612 5612 5611 5611 5611 5611 5610 5610 5608 5607 5605 5605 5604 5602 5601 5599 5597 5595 5592 5590
5620 5624 5622 5622 5625 5622 5619 5619 5617 5614 5610 5611 5610 5613 5619 5613 5609 5609 5607 5606 5605 5604 5603 5602 5601 5602 5601 5601 5602 5601 5601 5599 5598 5597 5596 5596 5595 5594 5593 5591 5588 5586 5585 5583
5610 5611 5609 5607 5611 5607 5603 5603 5602 5601 5600 5596 5600 5597 5608 5600 5598 5598 5598 5597 5594 5593 5591 5590 5590 5591 5591 5591 5591 5591 5590 5589 5589 5588 5588 5587 5587 5586 5584 5582 5580 5578 5577 5576
5598 5599 5596 5595 5598 5591 5589 5590 5589 5587 5586 5583 5583 5585 5592 5585 5585 5587 5586 5584 5583 5580 5579 5579 5580 5581 5581 5581 5581 5581 5580 5580 5580 5580 5579 5579 5578 5577 5575 5573 5571 5570 5569 5570
5590 5586 5585 5584 5587 5580 5579 5583 5578 5576 5574 5573 5569 5575 5574 5573 5572 5574 5573 5572 5570 5570 5569 5569 5570 5571 5571 5571 5571 5571 5571 5571 5571 5572 5571 5570 5569 5568 5567 5565 5563 5562 5562 5563
5578 5577 5576 5576 5576 5572 5573 5570 5568 5565 5564 5562 5560 5559 5560 5560 5561 5562 5562 5561 5560 5560 5560 5560 5561 5561 5561 5562 5562 5562 5562 5563 5563 5563 5563 5562 5561 5560 5559 5558 5556 5555 5554 5555
5569 5569 5569 5568 5567 5566 5565 5563 5559 5556 5554 5553 5550 5551 5552 5553 5553 5553 5552 5552 5552 5552 5552 5552 5553 5553 5554 5554 5554 5554 5554 5554 5554 5555 5555 5554 5553 5553 5552 5551 5549 5549 5549 5550
5561 5562 5562 5560 5560 5558 5557 5555 5553 5547 5545 5545 5545 5545 5546 5547 5547 5546 5545 5546 5546 5546 5547 5547 5547 5547 5547 5547 5546 5545 5545 5545 5545 5546 5546 5546 5546 5546 5545 5544 5544 5544 5545 5546
5553 5554 5553 5552 5551 5550 5548 5548 5543 5542 5543 5539 5539 5539 5541 5541 5541 5541 5541 5541 5541 5541 5541 5542 5541 5541 5540 5539 5537 5536 5536 5536 5536 5538 5539 5540 5540 5539 5539 5539 5539 5540 5541 5542
5545 5546 5547 5546 5544 5542 5541 5538 5536 5535 5533 5532 5533 5534 5535 5536 5536 5537 5537 5537 5536 5536 5536 5537 5536 5535 5534 5531 5530 5529 5529 5530 5530 5531 5533 5533 5533 5533 5533 5533 5534 5535 5536 5537
5537 5539 5539 5538 5536 5532 5530 5529 5528 5527 5528 5526 5527 5528 5529 5531 5531 5531 5532 5532 5532 5532 5532 5532 5531 5530 5528 5525 5524 5524 5524 5524 5525 5526 5526 5526 5526 5527 5527 5527 5527 5528 5529 5531
5529 5529 5529 5527 5529 5525 5523 5523 5522 5522 5520 5522 5523 5524 5524 5526 5526 5526 5527 5527 5527 5527 5527 5526 5526 5524 5522 5519 5518 5518 5518 5519 5520 5520 5519 5518 5519 5520 5521 5521 5521 5521 5522 5523
5523 5523 5522 5520 5521 5518 5519 5516 5517 5517 5516 5516 5517 5518 5519 5520 5521 5522 5522 5521 5521 5521 5521 5520 5519 5518 5516 5514 5512 5512 5513 5513 5513 5513 5512 5512 5513 5513 5514 5514 5514 5514 5515 5515
5517 5517 5515 5514 5513 5510 5514 5511 5511 5512 5511 5511 5512 5513 5514 5515 5515 5516 5515 5515 5515 5515 5514 5513 5512 5511 5510 5508 5507 5506 5506 5506 5506 5506 5505 5505 5505 5506 5506 5507 5507 5507 5507 5507